Weather History for Montague, CA

Change the Weather History Date:

Thursday, October 17, 2013

  Actual Average Record
Temperature  
Mean Temperature 50 °F 52 °F  
Max Temperature 72 °F 67 °F 83 °F (1988)
Min Temperature 27 °F 36 °F 25 °F (1949)
Degree Days  
Heating Degree Days 15 13  
Month to date heating degree days 275 180  
Since 1 July heating degree days 422 322  
Cooling Degree Days 0 0  
Month to date cooling degree days 0 0  
Year to date cooling degree days 776 542  
Moisture  
Dew Point 28 °F    
Average Humidity 51    
Maximum Humidity 78    
Minimum Humidity 25    
Precipitation  
Precipitation 0.00 in 0.04 in 0.55 in (1984)
Month to date precipitation T 0.42  
Year to date precipitation 5.07 12.06  
Sea Level Pressure  
Sea Level Pressure 30.20 in    
Wind  
Wind Speed 2 mph (NNW)    
Max Wind Speed 8 mph    
Max Gust Speed 14 mph    
Visibility 10 miles    
Events      
T = Trace of Precipitation, MM = Missing Value Source: NWS Daily Summary

Daily Weather History Graph

Daily Weather History Graph

Search for Another Location

Airport:

Trip Planner

Search our weather history database for the weather conditions in past years. The results will help you decide how hot, cold, wet, or windy it might be!

Date:

Astronomy

Oct. 17, 2013 Rise Set
Actual Time 7:24 AM PDT 6:24 PM PDT
Civil Twilight 6:56 AM PDT 6:52 PM PDT
Nautical Twilight 6:24 AM PDT 7:25 PM PDT
Astronomical Twilight 5:52 AM PDT 7:57 PM PDT
Moon 5:42 PM PDT (10/17) 6:01 AM PDT (10/17)
Length of Visible Light 11h 56m
Length of Day
11h 00m
Waxing Gibbous, 98% of the Moon is Illuminated
Oct 17
Waxing Gibbous
Oct 18
Full
Oct 26
Last Quarter
Nov 3
New
Nov 9
First Quarter

Hourly Weather History & Observations

Time (PDT) Temp. Windchill Dew Point Humidity Pressure Visibility Wind Dir Wind Speed Gust Speed Precip Events Conditions
12:53 AM 34.0 °F - 21.9 °F 61% 30.22 in 10.0 mi Calm Calm - N/A   Clear
1:53 AM 35.1 °F 29.3 °F 25.0 °F 67% 30.22 in 10.0 mi North 6.9 mph - N/A   Clear
2:53 AM 36.0 °F 32.1 °F 27.0 °F 70% 30.22 in 10.0 mi North 4.6 mph - N/A   Clear
3:53 AM 35.1 °F - 25.0 °F 67% 30.21 in 10.0 mi Calm Calm - N/A   Clear
4:53 AM 33.1 °F - 24.1 °F 70% 30.22 in 10.0 mi Calm Calm - N/A   Clear
5:53 AM 30.0 °F 26.5 °F 24.1 °F 79% 30.24 in 10.0 mi NNE 3.5 mph - N/A   Clear
6:53 AM 28.9 °F - 21.9 °F 75% 30.25 in 10.0 mi Calm Calm - N/A   Clear
7:53 AM 28.0 °F - 21.0 °F 75% 30.29 in 10.0 mi Calm Calm - N/A   Clear
8:53 AM 37.9 °F - 28.9 °F 70% 30.28 in 10.0 mi Calm Calm - N/A   Clear
9:53 AM 45.0 °F - 32.0 °F 60% 30.27 in 10.0 mi Calm Calm - N/A   Clear
10:53 AM 52.0 °F - 32.0 °F 47% 30.26 in 10.0 mi Calm Calm - N/A   Clear
11:53 AM 57.0 °F - 30.9 °F 37% 30.24 in 10.0 mi Calm Calm - N/A   Clear
12:53 PM 61.0 °F - 30.9 °F 32% 30.20 in 10.0 mi Calm Calm - N/A   Clear
1:53 PM 66.0 °F - 32.0 °F 28% 30.17 in 10.0 mi WNW 3.5 mph - N/A   Clear
2:53 PM 70.0 °F - 34.0 °F 27% 30.14 in 10.0 mi NW 4.6 mph - N/A   Clear
3:53 PM 71.1 °F - 33.1 °F 25% 30.13 in 10.0 mi Variable 4.6 mph - N/A   Clear
4:53 PM 72.0 °F - 33.1 °F 24% 30.12 in 10.0 mi Calm Calm - N/A   Clear
5:53 PM 69.1 °F - 33.1 °F 26% 30.12 in 10.0 mi SW 5.8 mph - N/A   Clear
6:53 PM 59.0 °F - 30.9 °F 35% 30.14 in 10.0 mi Calm Calm - N/A   Clear
7:53 PM 51.1 °F - 28.9 °F 43% 30.17 in 10.0 mi Calm Calm - N/A   Clear
8:53 PM 48.9 °F - 28.9 °F 46% 30.18 in 10.0 mi NNE 3.5 mph - N/A   Clear
9:53 PM 46.9 °F - 30.0 °F 52% 30.19 in 10.0 mi Calm Calm - N/A   Clear
10:53 PM 42.1 °F 40.2 °F 26.1 °F 53% 30.19 in 10.0 mi Variable 3.5 mph - N/A   Clear
11:53 PM 42.1 °F - 27.0 °F 55% 30.19 in 10.0 mi Calm Calm - N/A   Clear